GFSGL_sfc_wetblb_132.txt.gz
Wetbulb
62.06 61.89 61.29 60.20 59.85 59.24 59.01 58.84 59.59 60.29 60.18 59.95 60.02 60.42 60.53 60.88 61.53 61.26 61.23 60.95 60.27 60.58 61.00 60.24 59.84 60.59 59.27 59.44 59.53 58.99 58.11 57.04 53.63 55.79 57.01 58.32 58.17 58.58 58.95 58.96 58.75 58.18 57.87
60.24 59.17 58.21 57.48 57.06 54.51 54.99 55.50 56.16 57.43 58.14 57.42 57.43 57.44 57.76 57.73 58.82 58.32 57.72 58.24 57.84 57.59 58.04 58.38 58.29 58.70 59.27 59.53 57.13 57.40 56.11 57.08 54.60 54.13 55.34 55.09 56.37 59.04 58.72 56.91 56.48 57.12 56.77
57.42 55.75 54.96 53.92 53.25 52.26 52.36 52.86 53.88 55.02 55.83 55.98 56.01 55.61 55.56 55.70 55.92 56.22 56.04 56.11 56.74 57.29 57.73 57.64 57.78 58.14 57.19 56.25 56.06 54.87 55.50 56.19 55.85 53.30 52.59 54.21 54.55 55.27 55.31 56.81 56.93 57.09 57.30
55.74 54.94 53.98 53.44 52.15 51.62 51.81 51.48 52.24 52.76 53.46 53.96 54.56 54.53 54.86 54.79 55.05 55.22 55.27 55.20 55.74 56.23 56.95 57.01 56.46 56.39 56.20 55.99 55.42 55.76 56.17 55.02 53.74 51.98 51.54 51.45 52.58 55.40 54.65 52.90 53.78 55.91 55.76
53.31 52.69 52.46 52.20 52.69 52.28 51.37 51.77 52.61 53.12 53.43 53.91 54.08 54.52 54.83 54.73 53.56 51.65 51.81 52.90 54.19 55.15 56.11 56.32 56.95 56.42 54.14 53.44 53.05 53.47 53.81 52.92 52.50 51.85 51.54 51.86 52.20 52.86 53.38 54.60 53.43 53.94 55.38
50.25 48.59 50.92 51.22 52.04 52.06 52.22 52.17 52.65 52.97 53.38 54.02 54.13 53.88 53.95 53.83 45.51 45.59 46.95 50.32 52.44 53.66 54.28 55.65 56.34 55.08 54.84 51.75 51.26 50.95 51.62 51.72 51.26 51.38 51.56 52.46 55.09 54.92 54.13 54.18 51.77 49.12 46.93
50.50 50.07 50.10 50.66 50.79 51.12 51.62 51.75 51.98 52.46 53.23 53.42 53.52 52.39 51.18 49.89 44.72 43.97 45.01 49.74 51.51 53.54 53.95 54.09 54.52 55.19 54.34 54.99 53.03 51.25 50.43 49.31 49.45 50.13 48.99 49.32 49.75 52.73 51.11 50.26 49.81 48.66 48.16
48.70 48.20 48.33 48.57 48.92 49.76 50.65 50.65 51.20 51.70 51.68 51.30 51.28 51.58 50.61 49.58 44.94 43.21 43.94 50.84 52.18 53.27 54.03 53.70 53.18 54.65 54.74 50.32 49.33 48.57 48.93 49.00 49.84 49.63 49.36 49.68 50.33 50.66 50.46 50.06 49.78 49.52 49.45
47.54 47.61 47.43 48.53 48.68 49.07 48.45 48.18 48.68 48.78 48.89 49.30 50.42 50.81 49.65 49.18 43.13 41.79 43.05 47.67 49.11 50.71 52.29 52.79 52.29 50.99 47.43 44.11 45.92 46.03 46.54 47.65 49.24 47.87 46.70 45.57 44.90 44.81 46.48 48.96 47.89 46.82 45.74
46.92 47.52 48.53 48.85 48.55 47.72 47.59 47.63 47.46 47.65 47.39 46.68 47.65 49.08 47.36 48.73 42.77 40.91 41.18 42.79 43.62 46.82 49.99 51.52 47.91 47.64 43.00 41.97 43.89 44.89 43.58 46.04 46.81 46.59 47.35 47.49 46.72 47.83 45.91 46.93 47.35 46.26 46.31
47.79 48.23 48.12 47.83 47.82 47.05 46.28 46.47 46.12 45.45 44.57 45.12 45.92 48.23 48.02 45.80 44.66 40.65 40.26 40.64 43.04 43.66 47.40 50.20 50.61 42.81 40.81 40.23 40.24 44.08 42.71 42.05 43.21 44.77 46.52 47.82 48.01 48.20 49.01 49.23 47.91 47.22 46.52
47.43 46.93 46.83 47.17 46.88 46.46 45.82 45.66 45.18 43.10 42.28 41.85 42.53 42.67 44.34 46.27 42.77 40.77 39.62 39.90 42.83 48.44 48.52 48.06 48.27 40.53 39.61 39.61 41.60 39.25 39.46 43.01 48.39 49.23 49.06 49.77 47.98 47.71 49.14 49.92 48.45 48.48 49.95
45.29 45.07 45.58 46.32 45.69 45.16 44.07 43.10 41.56 39.51 37.48 37.45 37.57 38.10 41.16 43.80 42.73 40.53 40.52 40.63 41.60 46.53 46.04 45.11 41.53 39.85 39.51 42.88 40.95 40.28 42.06 45.97 46.05 49.84 51.91 51.16 50.30 49.08 49.14 49.66 49.17 49.05 49.44
43.30 43.39 44.33 44.51 44.16 42.79 41.03 39.88 40.20 38.39 37.36 35.99 35.43 36.34 38.62 39.99 39.33 38.93 45.20 43.39 43.47 45.22 46.01 46.36 42.45 39.70 39.40 41.78 44.49 45.58 45.43 44.56 44.70 46.43 52.67 53.10 52.07 50.97 49.48 48.93 47.06 47.26 47.11
41.16 41.75 43.15 40.66 42.31 40.34 40.05 38.18 37.91 36.74 35.38 34.48 34.73 35.81 35.99 35.40 35.43 36.26 38.72 41.50 40.05 42.03 44.08 44.74 40.68 37.70 36.66 39.17 38.65 38.68 40.34 41.98 42.47 45.83 48.98 52.99 50.63 50.86 49.22 49.22 47.90 47.74 47.54
39.68 39.70 39.58 37.83 38.98 42.76 40.80 39.02 36.75 36.52 35.93 34.90 34.83 34.60 35.74 35.35 35.08 35.37 36.03 36.24 36.78 37.26 43.96 42.82 39.06 35.58 34.42 34.85 35.00 36.23 39.14 39.96 41.33 45.50 50.17 54.25 51.14 50.86 48.96 49.65 52.15 51.08 49.63
38.85 39.40 39.58 39.77 41.03 41.54 40.30 37.66 33.71 35.62 36.45 35.01 33.79 33.84 34.04 34.33 34.09 34.66 35.16 35.60 37.01 40.26 42.59 40.85 35.71 34.50 33.87 33.78 33.72 34.92 35.73 38.48 42.01 45.31 49.00 53.22 53.55 51.92 51.50 48.99 50.16 51.68 49.58
40.67 37.20 38.58 38.04 40.25 40.66 39.40 36.10 33.18 31.58 31.50 31.34 33.37 32.68 32.88 34.27 33.47 33.57 34.46 37.57 43.33 42.44 43.40 40.78 35.73 34.15 33.51 33.01 33.15 33.69 35.57 37.69 40.64 42.70 47.17 51.21 51.78 51.52 50.46 50.84 51.43 51.22 51.96
41.93 40.64 39.35 38.63 38.72 39.23 37.94 35.34 33.23 31.08 30.65 30.12 30.42 31.41 32.14 33.47 33.14 33.10 34.77 38.43 39.88 40.35 39.94 41.63 40.94 36.26 33.99 33.51 32.81 33.41 34.85 35.50 37.38 41.69 44.30 50.33 49.77 49.00 47.67 48.21 47.02 41.35 43.14
39.89 34.27 37.08 41.31 40.64 38.44 38.37 35.16 32.21 31.91 30.57 29.82 30.81 29.72 31.20 34.17 30.65 29.74 33.12 35.08 34.36 37.21 37.86 39.28 40.17 39.98 36.08 35.57 34.60 33.27 32.88 33.71 34.80 37.45 40.49 46.79 51.26 49.88 47.82 47.01 46.54 46.16 45.33
40.59 39.75 33.99 39.58 38.62 38.41 37.86 35.80 35.68 35.00 34.85 33.35 35.78 32.71 30.11 36.13 35.78 30.32 29.04 29.83 31.24 32.68 36.08 35.57 37.87 39.72 38.24 38.45 37.80 34.59 32.44 31.95 33.29 35.99 39.44 45.27 50.14 52.05 51.88 49.61 48.05 47.08 46.49
39.88 39.48 38.82 38.12 37.32 36.15 36.26 36.41 36.56 35.84 35.30 34.71 35.45 35.89 31.10 37.20 37.40 37.22 34.49 30.57 30.07 31.17 32.38 32.37 36.59 37.67 37.28 36.82 37.13 37.51 34.11 30.96 31.91 35.37 38.11 44.43 48.23 51.07 53.68 52.79 51.43 49.90 49.15
39.22 38.77 38.30 37.95 37.07 34.74 36.02 35.44 34.87 35.83 36.40 36.62 36.82 37.04 37.04 36.59 36.23 37.10 37.57 38.18 36.44 32.34 31.79 31.04 33.71 35.00 35.54 35.81 36.53 36.28 34.01 31.49 32.86 35.92 38.32 42.78 45.52 47.60 51.16 52.35 51.94 50.83 49.39
38.34 38.00 37.62 37.05 36.17 35.88 35.66 35.34 35.35 32.54 34.89 35.57 36.24 36.28 36.79 37.24 37.43 37.38 37.75 38.14 38.77 38.49 37.00 34.24 32.71 34.53 32.91 33.16 33.71 35.53 34.49 32.87 37.18 36.45 40.82 42.18 43.36 45.67 50.04 50.39 52.33 51.98 51.87
37.68 37.35 36.85 36.90 36.69 36.59 36.28 35.59 35.32 35.32 35.25 35.37 35.56 35.82 36.51 36.81 36.91 37.21 37.87 38.06 38.17 38.49 38.35 38.48 37.86 35.42 34.88 33.31 31.83 32.54 30.52 29.48 33.84 31.41 43.76 44.45 43.14 44.72 45.74 47.44 50.11 51.26 51.50
36.71 36.39 36.14 36.04 35.49 35.75 35.64 35.57 35.28 35.28 34.90 35.01 35.62 36.04 35.72 35.75 36.32 36.18 37.33 37.38 37.52 37.84 37.97 38.51 38.14 38.20 35.97 33.80 32.38 29.53 29.23 29.28 31.73 30.33 40.91 45.04 43.40 44.32 45.08 47.43 46.33 48.42 49.33

GFSGL_sfc_wetblb_135.txt.gz
Wetbulb
66.17 65.84 64.87 64.27 64.34 64.11 63.37 63.30 62.80 62.79 62.46 61.18 61.12 60.84 61.36 61.36 61.90 62.06 61.88 61.39 60.82 62.18 62.80 61.49 61.89 63.41 59.86 60.43 60.58 60.18 59.36 58.91 56.36 57.18 59.57 60.79 60.02 59.31 60.66 61.06 61.01 60.58 59.62
62.99 61.93 61.14 60.65 60.70 60.16 59.24 59.59 59.74 59.67 59.18 58.70 58.35 58.40 58.64 58.77 59.39 59.01 58.36 58.26 57.86 57.56 58.29 59.38 58.76 59.03 61.67 61.15 59.51 60.61 58.93 58.80 56.33 55.17 57.35 57.36 57.53 60.19 59.27 58.43 58.62 58.18 58.74
60.16 59.34 58.58 58.16 57.47 57.35 56.64 56.89 56.94 55.45 56.26 55.78 55.61 55.22 55.56 56.29 56.62 57.04 56.97 56.79 57.17 57.34 57.35 57.24 57.66 59.06 59.42 58.37 58.11 56.39 55.13 55.14 56.03 53.98 53.93 56.53 56.95 57.48 56.70 57.44 57.57 58.49 58.60
58.71 57.81 57.13 56.78 56.78 56.50 56.50 55.82 55.29 55.47 54.21 54.17 55.04 55.16 56.22 56.77 56.59 56.57 55.80 54.53 54.41 55.45 56.33 57.26 57.22 57.25 56.79 56.38 55.59 56.22 56.58 56.20 56.08 55.41 54.09 54.55 55.04 56.70 55.27 54.14 54.35 56.35 56.24
56.40 55.71 55.58 56.26 56.29 56.11 55.67 55.95 55.80 56.34 56.40 56.37 56.40 56.54 56.72 56.38 51.59 51.38 52.32 52.16 52.58 53.44 54.77 55.52 57.26 57.01 55.59 55.11 55.11 55.53 54.55 53.56 53.16 52.32 52.40 53.07 54.13 53.81 53.32 53.72 52.95 54.89 55.18
55.11 54.37 54.73 54.27 54.46 53.16 54.45 55.05 55.58 55.86 55.97 56.08 55.87 55.53 54.72 53.66 46.37 46.50 47.66 49.76 51.33 52.33 53.39 54.65 55.86 55.70 55.50 52.94 52.15 51.94 51.66 50.78 50.12 50.34 50.04 49.11 50.49 51.29 52.30 51.95 51.87 51.41 49.66
52.45 52.42 52.72 53.37 53.26 53.65 54.33 54.26 53.88 53.79 53.81 53.25 53.30 53.69 52.20 51.78 44.74 43.91 44.44 48.86 51.39 53.75 54.21 54.80 54.79 55.15 54.49 54.05 50.68 50.10 50.10 49.34 49.53 48.81 47.14 47.55 47.84 49.36 49.87 49.49 49.64 49.70 49.31
51.91 52.07 52.41 52.80 52.67 52.96 52.59 51.71 51.69 51.75 50.95 50.59 51.31 51.89 51.29 48.63 43.05 42.25 42.59 50.54 51.37 52.42 52.33 52.06 51.98 52.37 52.00 46.41 45.73 46.34 47.41 48.64 49.56 49.09 48.67 49.21 49.93 50.19 49.90 49.63 49.49 49.50 50.18
51.34 51.70 52.11 52.24 51.94 51.48 50.93 50.74 50.75 50.70 49.13 48.16 49.18 49.90 49.31 49.78 42.57 41.75 42.32 45.87 45.61 47.52 50.72 52.74 52.76 51.81 42.31 41.18 42.75 43.28 43.97 45.38 48.27 47.22 46.48 45.32 44.37 44.08 45.46 46.37 44.87 44.94 45.88
50.98 51.08 51.59 51.73 51.16 50.12 49.87 49.45 49.41 49.42 48.76 47.87 47.28 48.79 47.71 47.40 42.43 40.89 41.04 44.50 47.98 49.41 51.10 52.65 47.97 42.68 40.16 39.82 40.70 41.60 41.35 43.47 43.84 44.43 46.17 47.66 46.89 47.77 46.23 46.71 45.99 43.98 45.59
51.28 51.25 51.05 50.88 50.50 49.29 48.41 48.05 47.46 45.78 46.69 46.40 46.29 47.61 47.94 46.18 44.26 40.62 40.26 44.43 44.72 46.07 49.18 49.42 49.07 40.79 39.43 38.94 39.16 41.03 43.04 42.70 44.34 48.56 50.58 52.23 52.72 50.67 49.57 50.67 49.04 47.45 45.97
50.07 49.48 48.82 49.15 48.29 47.22 46.61 46.57 45.70 44.42 43.92 43.74 43.18 44.51 46.48 46.07 42.50 40.69 39.85 40.03 42.42 45.88 47.71 47.61 45.18 39.48 38.66 38.64 40.73 38.59 39.06 43.64 47.27 47.52 47.96 52.92 51.34 49.73 49.25 49.70 50.32 49.29 49.40
47.73 47.59 47.06 46.88 46.38 46.05 45.24 44.30 43.74 43.62 41.05 40.45 38.51 40.41 41.59 43.70 42.32 39.12 40.03 40.61 41.43 45.81 47.08 44.00 40.61 39.05 38.42 40.53 39.30 39.15 41.35 43.18 43.83 44.88 47.14 49.24 51.85 52.39 51.24 49.95 49.43 49.36 49.41
44.96 45.11 45.54 45.39 44.98 44.79 43.62 42.16 39.57 38.05 37.59 37.18 36.00 37.06 38.79 40.23 38.82 37.86 44.05 46.28 42.10 47.22 46.19 44.15 40.56 39.26 38.53 39.19 39.94 40.59 40.96 41.60 42.34 44.86 45.72 48.77 53.11 51.03 48.70 48.80 47.23 47.56 47.38
43.23 44.03 43.78 43.15 45.45 43.38 40.53 39.28 38.28 35.41 34.30 34.21 33.42 35.34 35.31 35.40 35.09 35.49 36.87 38.03 39.88 42.86 44.11 44.32 38.42 37.09 36.16 37.17 37.42 38.12 39.72 40.48 41.56 43.36 47.00 51.39 52.44 49.87 51.19 48.79 48.84 50.26 48.30
41.85 41.88 41.20 41.66 44.66 43.68 41.88 38.93 36.33 36.28 35.29 34.14 34.04 33.43 35.72 34.61 34.37 34.52 35.32 35.73 36.11 37.26 45.54 40.72 36.97 36.19 35.02 34.79 35.27 35.63 37.43 38.73 40.21 42.94 46.78 51.09 51.07 51.10 50.10 52.14 51.48 50.92 50.38
40.82 40.84 42.64 43.31 43.99 42.47 40.13 35.68 33.47 35.68 35.94 34.65 33.61 33.66 34.02 33.74 33.75 34.15 35.11 35.97 36.87 41.33 46.28 39.97 37.11 35.80 34.94 35.27 35.23 34.98 34.89 36.89 39.23 42.21 44.56 49.25 49.43 50.48 50.67 51.03 52.91 52.89 50.42
43.22 38.97 41.55 43.47 43.80 42.67 40.38 36.42 33.53 31.18 30.64 31.51 33.52 33.79 33.91 33.66 32.92 33.61 35.12 39.98 43.66 42.53 43.39 42.87 39.08 37.42 36.86 35.78 35.85 35.04 34.42 35.94 36.70 39.30 41.93 46.62 49.25 48.60 47.72 47.29 46.84 46.84 46.53
43.95 44.41 44.08 43.74 42.91 42.57 41.45 36.63 34.29 32.81 31.70 31.59 32.65 34.63 35.18 34.28 33.13 32.74 34.35 38.93 39.73 39.04 37.22 38.06 40.25 38.84 38.03 36.54 36.10 36.17 35.22 34.16 35.32 38.55 40.54 45.20 50.52 48.73 47.23 46.68 46.46 41.44 42.12
41.56 37.09 40.03 44.13 43.87 42.99 42.05 40.74 38.35 37.29 35.70 36.15 34.63 35.93 36.95 37.70 37.45 33.83 32.00 33.63 33.76 36.75 36.44 36.67 37.83 37.56 37.93 36.95 36.49 37.56 36.01 33.99 34.32 37.32 38.86 44.10 47.54 50.86 48.98 48.21 46.78 45.36 44.04
42.88 42.12 35.22 41.48 40.96 41.03 40.83 39.45 38.17 37.12 36.52 36.66 36.76 36.08 31.31 40.08 40.20 40.50 37.89 32.20 31.09 31.68 34.13 35.32 37.82 37.43 36.98 37.23 37.53 39.08 38.55 35.16 34.91 37.43 37.97 43.47 46.13 48.23 51.99 51.72 49.27 48.35 46.73
42.35 41.78 40.90 40.07 39.80 38.86 39.12 39.37 39.14 37.81 37.42 37.60 37.89 37.43 32.37 39.87 39.86 40.07 40.14 40.48 38.69 33.11 33.73 33.51 36.51 37.81 36.38 36.19 36.57 37.33 36.78 36.30 37.37 38.04 37.40 44.07 46.21 46.63 49.98 51.72 51.20 49.24 47.20
41.77 41.05 40.59 40.39 39.82 37.35 39.15 38.46 37.70 37.34 37.26 37.64 38.58 38.48 38.94 39.11 39.25 39.42 39.96 40.60 41.12 40.62 39.16 39.33 37.86 36.98 38.08 36.26 36.19 35.87 34.63 33.97 36.57 39.33 38.77 43.53 45.05 45.99 48.21 48.62 50.71 50.81 48.60
41.21 40.95 40.43 39.47 39.16 38.94 39.21 38.31 38.12 34.85 36.74 37.09 37.78 38.24 38.37 38.81 39.02 39.52 39.74 40.62 40.88 41.00 41.26 40.54 40.23 38.28 36.89 36.26 35.24 34.55 34.34 32.59 35.64 37.20 39.71 45.52 45.40 45.42 48.27 47.57 49.13 50.61 51.23
40.46 40.12 39.69 39.64 39.26 39.38 39.16 38.46 37.78 37.24 36.76 36.65 37.46 37.72 37.99 38.65 38.70 39.12 39.48 39.91 40.39 40.49 40.30 40.19 40.05 39.41 37.04 34.80 33.34 32.42 30.26 29.47 32.96 31.09 39.17 46.01 44.13 45.35 46.30 46.60 46.89 48.68 48.94
39.74 39.37 38.91 39.02 38.49 38.38 38.25 38.22 37.71 37.68 36.88 36.89 37.05 37.78 37.74 37.82 38.48 38.45 39.09 38.84 39.05 39.61 39.78 39.91 39.48 39.55 36.17 33.91 32.10 29.96 29.31 29.33 31.28 30.34 37.89 43.43 43.02 44.92 44.77 44.55 43.60 44.35 44.93

GFSGL_sfc_wetblb_138.txt.gz
Wetbulb
64.83 64.54 64.15 63.76 63.83 63.64 62.97 62.70 62.54 62.52 62.55 61.43 61.20 61.09 60.24 61.34 61.31 61.26 61.10 60.28 59.39 58.35 58.54 57.69 57.50 58.39 57.64 58.07 58.35 57.92 56.62 56.32 53.70 54.73 56.03 56.44 55.88 56.09 57.34 57.33 58.26 57.03 56.96
61.53 61.34 61.09 60.99 60.29 59.54 59.08 59.17 59.41 58.94 59.16 57.82 58.19 57.44 57.13 57.11 57.94 57.29 56.59 56.78 56.24 55.97 55.83 55.70 55.78 57.27 56.41 56.82 56.85 56.02 55.60 54.85 52.73 50.31 52.43 53.62 54.50 56.03 55.78 55.54 55.20 56.30 55.34
60.13 59.18 58.73 58.21 57.48 57.08 57.12 57.29 56.93 57.29 56.85 56.82 56.46 56.10 55.95 56.99 56.82 56.22 55.77 53.89 53.18 52.92 53.15 53.61 54.20 55.14 54.82 55.40 54.93 54.67 53.92 54.17 54.21 52.78 51.78 54.00 54.32 55.32 54.07 54.36 54.33 54.68 56.00
58.33 57.70 57.06 57.21 57.08 56.99 57.55 57.34 57.39 57.26 56.85 56.85 57.24 56.85 56.85 54.11 51.77 51.18 51.13 50.92 51.41 51.78 52.65 53.45 53.62 53.61 54.26 54.04 52.99 53.02 53.15 52.71 52.50 51.42 50.56 50.92 52.37 53.13 53.83 52.58 52.37 54.38 54.26
56.26 55.92 55.87 56.27 56.30 56.26 56.12 56.46 56.99 56.81 56.37 56.34 56.28 55.93 54.82 52.97 48.75 48.02 48.90 48.83 48.93 50.09 51.94 53.08 53.91 54.92 55.41 54.17 53.02 52.36 51.62 50.76 50.31 49.49 49.33 49.87 50.27 50.62 50.41 52.30 51.53 52.22 54.30
55.04 54.06 55.07 54.90 55.29 55.25 55.50 55.38 55.18 54.52 53.97 54.17 53.95 53.48 52.01 49.35 44.89 44.78 45.45 45.85 48.35 49.78 51.71 53.40 54.24 54.58 53.18 52.20 50.08 48.95 48.60 47.16 46.41 46.56 46.82 46.37 47.27 48.27 49.47 49.52 49.65 49.24 47.78
52.79 52.99 53.24 53.85 53.50 53.32 53.19 52.64 52.45 52.00 52.42 51.17 51.11 50.83 50.20 47.18 43.28 42.93 43.86 45.81 49.77 50.96 50.35 49.64 50.20 52.26 48.17 44.85 45.02 46.22 46.94 47.48 47.82 46.66 45.36 46.14 46.82 48.08 48.48 47.72 47.85 47.92 47.69
52.20 52.28 52.44 52.17 51.78 52.19 51.71 50.93 50.77 50.39 49.47 49.24 49.22 49.61 49.81 45.50 42.87 41.67 42.26 46.01 46.75 48.01 50.40 50.84 51.37 49.96 43.35 41.55 41.41 42.47 43.58 44.90 46.05 46.72 46.40 46.61 47.13 48.15 48.03 47.89 47.62 47.40 47.61
50.99 51.24 51.46 51.15 50.33 50.10 49.55 49.54 48.94 48.19 47.78 48.40 47.84 48.95 48.71 47.82 42.12 41.01 41.83 44.81 47.42 48.12 49.45 50.75 48.04 43.98 40.60 39.82 39.89 40.49 42.29 43.53 46.10 46.30 45.57 44.12 42.98 42.97 44.07 44.70 43.39 43.49 42.99
50.12 50.41 51.10 50.12 49.06 48.15 47.83 47.42 47.16 47.37 47.01 47.03 47.35 49.03 47.06 46.44 41.46 40.32 40.33 43.50 44.64 44.95 48.56 49.51 46.30 40.75 39.24 38.85 39.27 39.69 39.63 40.61 40.96 43.18 45.22 47.78 48.83 50.22 47.63 47.98 45.99 43.09 43.59
50.04 50.12 49.74 50.40 48.63 47.83 46.83 46.87 46.42 45.78 45.82 44.73 44.99 47.36 47.00 44.55 42.05 39.20 39.26 41.87 42.70 44.71 46.61 45.79 43.43 39.80 38.66 38.12 38.91 40.06 38.46 39.76 41.00 44.88 46.81 49.19 51.54 51.83 50.91 50.01 49.82 47.11 45.08
48.72 48.05 48.10 47.76 47.07 46.44 46.16 45.73 44.58 44.35 43.47 41.49 42.12 43.49 44.46 43.22 40.01 38.35 39.15 40.03 41.67 42.75 44.74 42.20 40.64 38.85 38.13 38.42 38.96 38.04 38.19 41.18 42.96 43.61 45.26 46.12 47.56 50.54 49.70 49.49 49.37 49.37 49.66
46.63 46.74 46.61 46.84 45.52 45.02 43.25 41.46 40.34 41.11 40.17 38.05 38.42 39.10 40.31 42.18 38.87 38.66 39.84 40.46 41.15 44.18 45.07 42.31 39.85 38.56 38.76 39.20 38.87 38.86 39.95 41.00 41.27 41.77 42.71 45.67 49.62 51.11 48.91 48.55 48.84 49.48 49.31
45.63 45.57 46.22 45.21 43.44 42.82 41.70 39.29 36.62 35.19 35.63 35.15 34.59 35.86 37.53 38.35 37.23 36.53 37.65 40.29 40.73 42.38 42.19 41.73 41.05 39.69 39.31 39.63 39.20 39.36 39.82 40.40 40.75 40.99 43.53 48.26 52.32 50.36 47.58 48.27 47.24 47.36 47.00
44.34 43.92 43.13 45.00 43.05 40.17 37.79 36.96 35.89 33.86 33.26 33.10 32.73 33.95 34.62 33.53 33.83 34.59 34.97 36.52 37.68 39.55 39.36 40.34 38.74 38.01 37.62 37.66 37.87 38.08 38.27 38.60 38.72 40.75 43.98 46.73 50.07 50.58 49.85 48.59 48.97 50.04 47.83
42.61 42.93 42.62 44.06 43.47 41.47 38.73 35.99 36.18 35.56 34.66 34.24 34.19 33.68 34.52 34.21 34.24 34.89 35.77 36.26 37.25 38.43 43.64 39.39 37.71 37.34 36.28 35.91 35.95 36.56 36.88 37.05 37.47 40.07 42.78 45.62 48.41 48.24 47.97 48.40 51.44 50.00 49.03
41.34 42.74 43.46 43.01 42.57 40.20 36.82 34.83 32.39 34.16 35.53 34.52 34.15 34.53 34.46 33.35 33.84 34.58 35.92 37.15 36.70 37.37 38.07 38.23 37.66 36.33 35.99 35.43 35.77 36.68 36.16 36.78 38.01 40.15 41.58 44.56 48.95 47.77 47.06 46.04 46.73 47.16 46.52
42.42 39.91 43.20 42.94 42.62 40.64 37.02 34.13 33.02 32.00 32.20 32.54 34.65 34.61 34.55 33.86 33.86 34.03 35.00 37.87 37.01 37.46 35.60 35.98 35.37 35.35 35.30 34.93 35.96 36.45 37.13 36.85 36.87 39.45 40.88 43.90 46.77 49.06 46.90 45.98 45.03 44.12 44.52
43.93 43.31 44.19 43.63 42.83 41.63 38.24 35.60 35.23 34.24 34.75 34.05 35.23 36.59 35.80 34.83 34.59 34.14 34.71 33.39 33.06 33.42 34.61 35.47 35.91 35.29 35.04 35.09 35.88 36.82 37.31 36.67 36.95 39.16 39.97 43.60 46.45 48.51 48.23 47.76 46.28 40.22 40.89
41.35 38.38 40.91 43.78 42.97 41.95 40.40 39.07 38.62 38.25 37.59 36.80 35.03 35.67 37.34 40.11 38.82 38.39 34.86 33.60 32.25 32.98 33.96 35.28 36.77 36.10 34.80 34.59 35.14 35.75 35.89 36.13 35.99 38.05 39.26 42.75 45.67 47.09 48.40 48.21 47.22 43.20 42.55
42.24 41.85 38.92 40.39 40.31 40.31 40.01 39.42 38.95 38.61 38.02 37.65 36.10 36.39 31.90 38.50 39.00 38.98 39.35 38.58 34.01 32.52 33.90 35.71 35.96 36.42 35.53 34.40 33.86 34.35 34.05 33.74 33.77 36.31 38.44 41.49 45.37 45.42 48.07 49.91 47.65 46.53 44.08
41.90 41.42 40.23 39.05 39.55 38.52 38.38 38.95 38.74 38.05 37.83 37.39 37.33 37.16 33.67 38.50 38.36 38.88 39.03 39.24 39.65 36.84 37.95 38.85 35.86 35.14 34.51 33.59 32.85 32.75 31.87 31.16 31.27 34.34 36.18 40.03 44.82 45.21 46.92 47.30 49.78 46.97 45.53
41.19 40.08 39.96 39.78 39.90 38.16 38.69 37.89 37.75 37.80 37.54 37.31 37.18 37.01 37.24 36.86 37.49 37.63 38.78 39.94 40.27 40.17 39.96 39.65 36.48 34.47 34.14 33.23 32.89 32.39 30.66 29.39 29.93 34.04 34.40 39.49 43.40 43.91 45.54 44.92 46.54 47.28 45.98
41.17 40.70 39.87 38.85 39.17 38.91 38.72 37.91 37.75 34.96 36.91 37.12 37.15 36.94 36.70 37.00 37.17 37.65 37.71 38.98 39.79 39.93 39.58 38.90 37.26 33.97 32.64 31.87 31.47 31.44 30.94 29.87 31.39 32.17 34.04 41.26 40.94 42.83 44.19 43.48 44.01 45.00 45.43
40.10 39.68 39.07 39.27 38.98 39.39 39.04 38.29 37.61 37.35 36.79 36.73 36.52 36.32 36.67 37.17 36.33 37.00 37.69 37.94 38.43 38.77 38.66 37.99 37.66 34.43 32.28 30.87 30.13 30.04 29.56 29.38 30.59 30.57 33.02 39.77 39.60 41.78 43.23 42.54 42.80 43.02 42.76
39.10 38.79 38.29 38.82 37.94 37.86 37.83 37.24 36.73 37.46 36.90 36.26 36.54 36.62 35.86 35.55 36.26 35.78 36.71 36.49 36.69 37.10 37.28 36.96 36.54 33.79 31.25 30.38 29.66 29.14 28.88 29.03 29.60 30.07 35.53 38.33 38.50 37.19 40.09 42.52 42.36 41.78 41.41

GFSGL_sfc_wetblb_141.txt.gz
Wetbulb
61.56 60.35 59.09 58.52 58.10 57.16 56.66 56.57 55.17 54.38 54.25 54.00 54.39 53.59 53.41 53.41 52.66 52.03 52.41 52.89 52.40 51.46 51.50 51.39 52.00 52.83 53.22 53.93 53.55 53.07 52.46 51.87 50.35 51.23 52.40 52.89 51.53 52.32 54.11 54.93 56.30 55.51 55.11
57.94 57.48 56.80 55.96 55.00 53.99 52.98 52.48 52.72 51.82 52.10 52.09 52.82 52.44 53.13 52.76 50.74 49.75 49.80 50.39 49.84 49.29 49.93 50.10 50.72 53.22 51.47 51.70 51.45 51.25 51.08 50.88 51.32 49.10 50.78 51.45 51.59 53.18 53.64 53.35 54.76 56.01 54.85
55.96 55.26 54.56 53.00 52.17 51.52 51.17 50.82 50.93 50.83 50.73 51.17 51.33 51.66 50.17 49.10 48.13 47.91 47.71 47.51 47.68 48.26 48.69 48.88 49.80 50.24 49.49 50.23 50.91 50.82 50.66 51.20 50.93 50.21 49.86 51.48 51.85 52.11 51.86 52.80 53.17 53.86 54.24
55.29 53.63 52.27 51.79 51.52 51.75 51.57 51.56 51.94 52.04 52.02 51.96 52.26 51.71 48.32 47.37 46.65 46.49 46.16 45.72 45.67 46.79 47.97 48.96 49.79 50.68 51.41 50.72 50.39 49.59 49.81 49.07 49.59 49.30 48.94 49.22 49.95 51.06 51.65 50.87 50.95 53.18 53.32
52.80 51.56 50.36 50.29 50.91 51.19 51.45 51.44 51.12 50.58 50.83 51.03 50.70 49.88 47.62 46.25 44.87 43.61 43.63 43.24 43.47 45.10 47.53 50.48 51.63 52.11 52.96 48.39 46.58 45.55 45.48 45.37 45.93 45.99 46.02 46.36 46.42 47.05 46.82 48.54 48.38 49.64 51.08
50.23 49.61 50.27 50.46 50.47 49.65 49.49 49.32 48.67 48.42 47.69 48.51 48.74 48.51 46.15 45.60 43.82 43.85 44.54 42.16 44.00 48.29 46.35 47.59 49.41 51.44 46.84 45.29 45.31 45.58 45.06 43.47 43.41 43.82 44.14 43.94 44.73 45.78 47.03 47.04 47.50 46.87 45.17
49.64 50.53 50.41 50.00 49.35 48.65 48.27 47.44 46.14 45.42 45.42 47.28 48.18 48.65 44.83 42.96 42.66 41.99 43.69 42.86 43.24 45.53 47.14 48.47 50.05 46.98 43.87 41.34 41.72 42.83 43.53 44.50 45.33 44.90 43.62 43.86 44.23 45.77 46.23 45.61 46.07 46.16 46.11
48.59 49.12 48.91 48.25 47.77 47.19 45.92 44.98 45.99 46.60 45.05 45.27 47.12 48.28 45.17 43.36 42.03 40.96 42.00 41.86 45.27 45.69 46.50 48.77 44.44 41.12 40.52 40.14 39.59 39.85 41.33 42.55 43.89 44.97 44.46 44.59 45.60 46.39 46.31 46.09 45.39 45.21 46.15
47.59 47.25 47.58 47.06 45.56 44.85 43.77 42.22 42.27 44.54 45.42 45.62 46.85 46.39 45.38 43.62 40.57 40.06 39.95 39.87 41.94 42.07 45.89 45.59 43.23 40.10 40.04 39.74 38.87 39.02 40.06 40.43 43.43 44.39 44.09 43.56 43.07 43.31 44.23 45.20 44.23 43.41 42.57
46.78 46.83 46.57 45.73 45.00 45.15 44.68 41.82 44.09 44.86 42.53 42.03 44.51 45.59 44.12 40.99 39.69 39.42 39.88 40.02 39.64 41.46 43.66 42.25 42.45 40.49 39.27 38.94 38.66 38.63 37.53 38.68 39.72 41.73 43.71 45.81 47.21 49.25 49.04 49.55 48.97 44.82 43.87
46.75 45.94 45.31 43.90 44.88 44.27 43.35 41.63 41.44 42.27 39.86 38.86 40.93 42.59 42.88 39.56 38.21 38.82 39.37 40.00 39.96 41.42 42.42 41.33 41.40 40.22 38.98 38.67 38.88 39.16 37.88 39.48 41.65 42.74 44.07 46.22 47.80 49.57 49.62 49.21 48.91 48.12 45.18
45.90 44.80 43.25 42.16 42.40 40.42 38.07 37.80 37.65 37.84 35.99 36.58 36.60 37.63 40.54 39.60 39.25 37.87 37.75 38.31 40.94 41.41 42.12 41.19 40.50 39.12 38.64 38.55 39.31 38.12 38.37 40.52 41.44 41.88 42.80 44.54 46.80 49.56 48.47 48.49 49.05 48.91 49.24
44.51 42.54 40.88 40.26 40.11 38.57 35.22 33.88 33.82 34.57 34.47 34.66 35.02 35.58 35.68 36.88 36.49 37.06 36.76 37.42 39.77 40.31 41.90 41.77 39.74 39.17 39.21 39.59 39.45 39.21 39.44 39.48 39.95 40.08 41.02 44.43 47.72 51.37 49.18 48.49 48.78 49.19 49.78
41.41 43.13 40.92 38.41 36.21 35.75 36.41 33.04 31.28 32.32 33.00 32.51 31.54 31.27 32.38 33.00 33.12 34.31 35.71 37.21 39.88 40.35 40.25 41.05 40.33 39.93 39.32 39.34 39.50 39.91 39.80 39.77 39.66 39.79 41.76 45.12 49.55 49.51 49.26 48.76 47.61 47.66 46.69
39.61 39.93 41.30 37.94 34.83 33.59 34.38 33.52 32.90 32.91 32.29 31.49 31.56 31.43 29.96 29.52 31.64 35.14 36.19 36.32 37.68 38.94 39.09 39.03 36.45 36.34 36.00 36.16 37.34 38.57 39.42 38.95 38.39 39.75 42.05 43.99 47.79 47.91 47.30 48.51 49.64 49.63 46.15
38.83 39.31 39.48 38.80 37.30 37.03 35.96 34.40 35.90 35.47 34.80 34.43 34.59 34.06 33.78 34.45 35.60 36.02 36.77 36.12 35.98 36.21 36.15 34.39 33.24 34.33 33.93 34.28 35.07 35.88 37.74 38.50 38.21 39.97 41.84 43.40 45.93 47.75 46.62 46.51 47.10 47.32 47.18
37.78 41.11 41.09 39.05 36.84 34.60 33.63 32.75 31.67 34.69 35.99 35.41 34.56 35.06 34.73 34.65 35.14 35.14 35.43 35.44 35.03 36.00 35.23 33.79 32.83 32.97 33.38 33.23 34.21 35.15 35.32 37.27 37.88 39.35 41.04 42.84 45.94 47.46 47.43 46.01 44.63 45.11 44.35
38.14 40.96 40.97 39.15 37.23 35.32 34.30 33.43 32.91 32.26 32.79 33.43 35.45 35.14 34.99 34.64 34.91 34.96 34.92 35.40 34.32 34.58 34.52 34.49 33.73 33.17 32.42 32.57 32.19 33.31 34.30 35.10 35.24 37.23 39.45 41.26 45.30 46.14 47.80 44.46 43.10 42.87 43.08
36.87 39.16 37.60 37.34 35.81 34.39 34.82 34.27 34.02 34.35 34.93 34.42 34.68 35.93 35.05 35.03 34.93 35.36 35.34 33.97 33.45 33.59 34.32 33.55 33.67 32.79 31.31 30.91 31.05 32.19 32.44 32.43 33.05 34.81 36.97 38.48 44.28 45.96 47.25 46.53 43.62 39.84 40.38
34.97 37.56 37.01 35.95 35.58 33.97 33.73 32.92 32.57 32.33 33.00 33.22 33.39 33.65 34.50 35.78 34.92 33.23 33.18 34.15 33.57 33.64 34.44 33.43 31.95 31.33 30.40 29.98 29.78 30.71 30.50 30.23 30.48 32.24 34.22 36.70 42.74 45.54 45.78 47.36 46.08 43.16 42.38
35.12 34.16 35.84 32.96 32.61 32.66 32.59 31.96 31.65 31.38 31.15 31.58 31.62 33.93 32.77 35.74 34.86 32.92 32.32 32.67 31.52 34.42 34.34 33.01 31.60 30.60 29.87 29.04 28.89 28.74 28.70 28.82 29.16 30.38 32.88 35.14 40.94 43.71 45.02 46.13 47.61 46.19 43.82
34.98 33.92 33.50 32.24 32.10 32.05 31.20 31.61 31.15 31.04 31.28 30.87 31.40 33.57 33.08 35.28 34.99 34.45 33.67 34.05 33.62 33.67 33.34 32.26 30.79 29.84 29.47 28.43 28.05 27.71 27.16 26.73 27.79 29.14 31.28 33.78 39.78 43.09 43.39 43.96 44.77 46.25 45.21
35.00 34.68 33.63 32.94 32.97 33.10 30.72 30.49 30.39 30.61 30.82 30.76 31.13 32.33 33.62 33.79 33.88 34.20 34.50 35.29 34.35 33.91 33.79 31.39 29.49 28.19 28.48 28.64 28.41 27.83 26.61 26.38 27.22 29.66 29.83 33.30 37.65 38.61 42.39 42.60 42.80 42.76 44.05
34.93 34.38 33.25 32.45 32.62 31.22 30.69 30.12 29.97 31.11 31.15 30.85 31.12 32.01 32.15 32.52 32.26 33.57 33.98 34.62 33.99 33.39 33.29 31.70 29.42 27.67 27.18 27.25 27.44 27.72 27.88 28.08 28.95 29.38 30.36 34.98 36.14 36.14 40.79 42.14 42.02 42.04 42.15
35.27 34.60 33.81 32.27 32.18 30.91 30.43 30.53 30.42 30.26 30.76 31.31 31.03 30.87 31.01 31.95 32.16 32.43 32.93 33.81 34.03 33.21 32.43 31.50 29.07 27.81 26.97 26.61 27.07 27.27 27.78 28.42 28.50 29.51 31.85 34.02 34.04 35.15 36.49 40.95 41.76 40.99 41.21
34.25 33.81 33.03 32.10 31.58 30.44 29.75 28.78 29.39 30.37 30.10 30.48 30.25 30.03 30.70 31.33 31.50 31.66 32.28 32.20 32.24 32.25 32.00 31.11 29.80 27.87 26.71 26.65 27.45 27.87 27.63 27.68 27.76 29.19 32.09 32.75 32.26 33.01 33.96 37.91 39.88 40.07 39.46

GFSGL_sfc_wetblb_144.txt.gz
Wetbulb
58.91 58.40 57.12 56.25 55.89 55.23 54.55 52.82 51.36 51.21 51.39 51.67 51.72 52.14 50.60 49.06 48.86 47.91 47.73 48.13 47.82 47.36 47.63 48.28 48.37 49.06 48.98 49.89 50.41 49.86 49.66 49.50 48.13 49.73 50.43 51.21 48.89 50.11 52.55 53.52 54.44 53.91 54.65
56.06 54.63 53.99 54.10 53.28 52.37 50.92 50.43 50.36 49.82 50.35 50.73 51.09 49.34 48.80 47.74 46.99 46.38 46.19 46.28 45.74 45.28 46.46 46.89 47.49 50.31 48.07 48.47 48.15 48.40 48.40 48.62 48.15 48.00 50.00 50.99 51.07 51.89 51.46 51.00 51.96 53.47 53.40
54.75 53.48 51.94 52.08 51.59 50.77 49.62 50.13 50.77 50.88 50.89 50.18 48.49 47.77 47.05 46.21 45.31 45.25 44.80 44.79 44.60 44.88 45.48 46.23 47.28 48.74 49.91 51.45 50.37 50.17 50.54 49.97 48.73 48.01 47.63 49.52 49.63 50.53 50.39 51.16 51.58 52.30 53.90
53.17 52.51 52.12 51.61 50.95 50.19 49.84 49.53 49.61 49.89 49.36 48.88 48.06 46.96 45.70 44.42 44.26 44.15 44.00 43.03 43.29 44.97 46.02 47.19 49.64 49.87 49.24 46.55 46.58 45.46 45.79 44.47 44.74 45.11 45.84 46.50 47.19 48.08 48.64 47.84 48.22 50.32 49.90
51.55 50.68 49.75 49.59 49.33 48.87 48.19 47.98 47.95 48.19 48.24 48.92 46.86 45.36 44.13 43.52 43.63 42.86 42.81 42.57 42.33 44.23 48.14 48.78 49.95 50.49 48.72 46.33 43.40 42.61 42.38 42.06 42.13 42.48 42.86 43.83 44.45 45.30 45.09 46.84 46.37 47.58 49.11
49.75 48.78 48.95 48.35 47.89 47.18 46.67 45.71 45.25 44.76 45.46 46.91 45.51 43.60 41.67 43.36 42.81 43.25 44.31 41.46 42.72 45.25 45.97 47.20 49.41 45.77 43.09 42.76 43.12 43.79 43.67 41.74 41.46 41.68 41.97 41.99 43.08 44.15 45.21 45.47 45.70 44.57 44.01
48.93 48.81 48.23 47.24 46.12 45.57 45.16 44.72 43.53 42.39 42.80 44.42 45.60 44.57 42.75 41.61 41.70 41.43 43.73 41.13 41.92 42.91 43.69 45.62 42.90 41.46 41.23 40.74 41.24 42.06 42.10 43.29 43.81 42.99 41.52 42.07 42.48 43.72 44.05 43.73 44.50 44.77 44.90
46.90 46.93 46.64 45.78 44.54 43.48 42.96 42.31 42.43 42.24 43.67 46.45 45.56 45.00 43.28 41.60 40.89 40.51 41.97 40.05 40.89 41.42 42.28 41.23 40.63 40.53 40.44 40.09 39.36 39.69 40.22 41.27 42.05 42.76 42.31 42.44 43.32 44.17 44.30 44.92 45.06 45.08 45.80
45.51 45.08 45.06 44.60 43.47 42.63 41.25 40.54 41.33 41.30 42.45 45.37 44.36 42.62 40.96 38.51 39.82 39.63 39.84 38.47 39.42 40.29 42.09 41.46 41.61 40.11 40.34 40.00 39.05 38.80 39.09 39.93 42.93 43.72 44.02 43.77 42.83 42.87 44.53 46.54 45.91 45.09 44.26
44.22 44.22 44.25 43.93 43.53 41.11 40.46 42.09 42.13 40.67 38.15 40.74 42.69 42.75 41.44 36.58 39.09 38.74 38.83 39.06 38.29 40.39 41.08 40.58 42.11 40.30 39.38 39.24 39.04 38.75 37.35 38.65 39.84 41.96 43.32 44.98 46.34 48.03 47.91 49.25 47.59 44.46 44.99
43.86 42.98 41.93 40.13 38.28 37.79 36.38 36.46 36.80 35.42 35.94 36.05 38.37 39.54 38.68 38.78 37.60 38.10 38.17 36.66 37.96 38.79 39.80 39.87 40.58 40.06 39.19 38.70 39.05 39.45 38.53 39.76 40.99 41.83 43.43 45.09 47.57 49.06 50.82 48.98 48.89 47.43 45.78
41.90 40.63 38.81 37.05 37.54 35.80 33.58 33.28 33.79 33.61 33.10 33.36 34.46 36.09 37.32 36.92 37.59 37.39 37.49 37.96 39.20 37.19 39.72 40.10 39.53 38.78 38.64 38.68 39.44 38.39 39.03 40.75 40.90 41.20 42.60 43.44 45.12 48.20 49.61 49.13 48.71 48.95 49.38
39.53 37.81 37.00 37.21 35.10 33.58 31.74 30.95 31.83 31.89 31.77 31.81 33.12 32.94 33.27 34.97 35.32 37.32 37.53 38.13 40.14 38.61 40.85 40.58 38.55 37.80 38.08 38.69 38.97 39.09 39.87 40.16 39.77 39.59 40.15 42.45 44.99 48.96 49.22 49.21 49.17 48.88 49.37
38.59 36.37 35.14 33.60 33.33 33.03 32.22 30.80 30.19 30.05 31.53 30.28 28.99 28.56 29.45 31.80 32.55 35.92 36.79 37.53 38.99 38.10 39.47 36.13 37.90 37.16 37.47 37.65 37.33 38.76 39.24 39.92 39.41 39.28 40.86 43.13 46.35 48.45 47.62 47.48 47.99 48.10 47.32
39.05 37.04 34.59 33.19 31.87 31.25 31.34 30.30 29.91 32.05 30.96 31.86 31.21 29.20 28.84 29.69 32.45 36.29 35.45 34.98 35.55 36.80 36.33 34.25 33.17 32.96 32.59 33.06 34.70 36.33 37.20 37.46 36.90 38.52 40.23 41.72 44.53 46.94 47.61 46.64 46.56 47.61 46.69
38.05 36.61 34.49 33.22 33.38 33.00 31.13 31.95 35.51 35.11 35.29 34.66 34.84 34.54 33.77 35.07 35.84 35.89 35.72 35.32 35.51 35.94 35.50 32.38 31.00 30.97 30.44 30.71 30.94 32.78 34.64 34.93 35.42 36.88 39.08 40.72 42.85 46.15 44.88 44.84 45.38 45.23 43.93
36.42 35.97 35.33 35.10 34.26 31.34 32.53 32.88 31.21 35.26 36.86 35.81 35.12 35.27 35.45 35.13 35.45 35.53 35.64 35.24 35.02 34.99 33.19 32.14 30.35 29.73 29.60 29.59 29.78 30.72 31.60 32.97 34.57 35.36 37.32 39.27 41.44 45.88 45.83 43.63 43.36 43.44 43.09
38.13 38.57 34.26 33.40 34.19 34.07 34.07 33.60 34.00 33.63 33.66 34.07 35.63 35.43 35.33 35.00 35.49 35.52 35.30 35.95 34.64 33.99 32.01 30.83 29.49 28.75 29.02 28.59 28.76 29.08 30.03 31.29 32.18 33.38 35.44 37.83 40.32 45.04 45.88 45.13 43.11 42.03 41.97
37.64 36.17 34.51 32.72 31.75 34.80 34.21 33.96 32.26 31.57 29.68 29.96 31.40 34.02 35.05 35.38 35.12 35.35 35.46 34.72 33.45 32.53 31.51 30.24 29.36 28.28 27.92 28.09 28.19 28.56 29.18 29.32 30.62 31.90 33.89 36.10 38.90 43.81 44.06 45.86 45.02 39.81 39.66
35.29 36.97 35.54 33.36 32.43 31.45 31.06 30.63 29.77 29.76 29.28 29.61 31.29 30.88 32.62 33.65 33.40 33.61 33.86 32.75 31.94 31.86 30.93 29.28 28.14 27.95 27.31 26.83 27.17 27.40 27.41 27.88 28.92 30.17 31.94 34.45 37.49 42.35 43.26 44.09 45.29 44.13 42.83
31.96 32.81 33.84 30.63 30.12 30.28 29.80 29.28 29.14 29.07 28.66 28.75 29.22 31.65 31.18 32.72 32.54 33.67 33.15 31.71 30.34 30.03 29.20 28.40 26.93 26.81 26.68 26.55 26.38 26.35 26.30 26.75 27.41 28.91 30.84 32.89 37.33 37.77 42.93 43.68 43.73 44.97 44.36
31.71 30.81 30.87 29.70 30.11 30.07 29.06 29.31 28.83 28.60 28.68 28.67 29.26 31.68 31.45 32.86 32.38 32.88 33.70 32.88 31.53 30.66 29.65 28.10 26.41 26.05 26.15 25.78 25.71 25.44 25.43 25.53 26.51 27.60 29.35 31.94 35.76 36.17 41.11 42.27 42.52 42.75 43.65
32.93 32.41 31.13 30.19 30.00 30.64 29.13 28.48 28.41 28.04 27.97 28.26 29.30 30.14 31.13 31.10 31.86 31.76 32.75 33.02 32.43 31.96 29.64 28.02 26.14 25.22 25.78 26.03 26.24 25.91 25.16 25.32 26.14 27.72 28.31 31.97 34.13 34.81 37.14 41.05 40.96 41.39 41.52
32.43 31.75 30.86 30.02 29.45 27.66 27.64 27.45 27.91 29.30 28.49 28.11 28.47 29.28 29.01 30.16 30.60 31.31 31.59 32.18 31.56 31.33 30.83 28.47 26.69 24.97 25.25 25.85 26.03 26.43 26.46 26.94 27.56 27.91 29.18 30.94 31.71 33.67 35.80 39.79 39.72 39.91 40.88
32.50 31.82 30.48 29.18 28.78 27.63 27.79 27.99 27.70 27.83 29.28 29.48 28.71 27.69 27.58 28.98 29.46 30.98 30.95 30.88 30.61 30.31 30.17 28.80 27.27 26.00 25.15 25.80 25.77 26.15 26.94 27.67 27.71 28.49 29.19 30.02 30.06 31.31 33.92 35.90 39.09 38.38 39.37
32.18 31.67 30.02 29.14 28.27 27.50 27.00 27.21 27.79 27.92 27.95 28.08 27.47 26.90 26.80 26.93 27.92 29.20 29.63 29.63 29.05 28.92 28.63 28.24 28.79 27.11 26.00 26.05 26.49 26.89 26.82 27.08 27.27 27.97 28.33 28.68 28.50 29.20 31.00 32.68 34.13 36.99 37.17